{"data":{"norad_id":65356,"epoch":"2026-09-20T22:50:52.036224Z","epoch_age_seconds":78420,"freshness":"FRESH","line1":"1 65356U 25190F   26263.95199116  .00017089  00000+0  51570-3 0  9997","line2":"2 65356  53.1593 339.5834 0001183  87.2192 272.8946 15.34402659 59203","mean_motion":15.34402659,"eccentricity":0.0001183,"inclination_deg":53.1593,"raan_deg":339.5834,"arg_perigee_deg":87.2192,"mean_anomaly_deg":272.8946,"bstar":0.0005157,"rev_number":5920,"period_min":93.847595450498,"perigee_km":461.88606664468,"apogee_km":463.50460757564,"semimajor_km":6840.8323371102,"source":"CELESTRAK","updated_at":"2026-09-21T09:00:35.575968Z"}}